This is the latest recevied weather packets stored in our database for station/object DJ4RO-13. If no packets are shown the sender has not sent any weather packets the latest 10 day(s).
| Time | Temp. | Humidity | Pressure | Rain* | Wind** | Luminosity | Snow |
|---|---|---|---|---|---|---|---|
| 1777631614 | 20.56° C | 39% | 1034.4 hPa | 0 mm | - | 600 W/m² | - |
| 1777631292 | 20.56° C | 39% | 1034.4 hPa | 0 mm | - | 601 W/m² | - |
| 1777630973 | 20.56° C | 39% | 1034.3 hPa | 0 mm | - | 600 W/m² | - |
| 1777630652 | 21.11° C | 39% | 1034.4 hPa | 0 mm | - | 597 W/m² | - |
| 1777630332 | 20° C | 40% | 1034.6 hPa | 0 mm | - | 596 W/m² | - |
| 1777630012 | 20.56° C | 38% | 1034.5 hPa | 0 mm | - | 594 W/m² | - |
| 1777629692 | 20° C | 37% | 1034.4 hPa | 0 mm | - | 591 W/m² | - |
| 1777629372 | 20° C | 38% | 1034.5 hPa | 0 mm | - | 588 W/m² | - |
| 1777629052 | 20° C | 40% | 1034.5 hPa | 0 mm | - | 586 W/m² | - |
| 1777628733 | 19.44° C | 42% | 1034.8 hPa | 0 mm | - | 581 W/m² | - |
| 1777628433 | 19.44° C | 41% | 1034.4 hPa | 0 mm | - | 579 W/m² | - |
| 1777628133 | 20° C | 39% | 1034.8 hPa | 0 mm | - | 573 W/m² | - |
| 1777627773 | 20° C | 41% | 1034.7 hPa | 0 mm | - | 568 W/m² | - |
| 1777627473 | 19.44° C | 44% | 1034.8 hPa | 0 mm | - | 561 W/m² | - |
| 1777627164 | 18.89° C | 42% | 1034.8 hPa | 0 mm | - | 559 W/m² | - |
| 1777626844 | 19.44° C | 42% | 1034.9 hPa | 0 mm | - | 554 W/m² | - |
| 1777626524 | 18.89° C | 39% | 1034.8 hPa | 0 mm | - | 546 W/m² | - |
| 1777626204 | 18.89° C | 42% | 1034.9 hPa | 0 mm | - | 540 W/m² | - |
| 1777625884 | 18.33° C | 43% | 1034.9 hPa | 0 mm | - | 531 W/m² | - |
| 1777625565 | 18.33° C | 42% | 1034.7 hPa | 0 mm | - | 526 W/m² | - |
| 1777625244 | 18.89° C | 41% | 1034.9 hPa | 0 mm | - | 515 W/m² | - |
| 1777624924 | 18.33° C | 42% | 1035 hPa | 0 mm | - | 515 W/m² | - |
| 1777624604 | 18.33° C | 44% | 1034.9 hPa | 0 mm | - | 509 W/m² | - |
| 1777624284 | 18.33° C | 42% | 1035 hPa | 0 mm | - | 499 W/m² | - |
| 1777623965 | 17.78° C | 43% | 1035 hPa | 0 mm | - | 491 W/m² | - |
* Rain latest hour (hover to see other rain measurements)
** Current wind speed in m/s (hover to see current wind gust speed)